www.pogodaiklimat.ru

Погода и климат >> Архив погоды >> Беларусь >> Волковыск


ПОГОДА в Волковыске

  • Прогноз погоды в Волковыске
  • Монитор погоды в Волковыске

АРХИВ ПОГОДЫ в Волковыске

Время (UTC), дата Ветер
(напр.,м/с)
 
Видим.   Явления Облачность Т
(С)
Тd
(С)
f
(%)
Тe
(С)
Тes
(С)
Комфортность P
(гПа)
Po
(гПа)
Тmin
(С)
Tmax
(С)
R
(мм)
R24
(мм)
S
(см)
12 10.08 Ю 2 21 км {туман} 10/0
[Ac As]
+21.2 +11.5 54 +23 +23 комфорт 1016.0 994.7
15 10.08 ЮВ 2 21 км 10/0
[Ac As]
+21.1 +11.4 54 +23 +23 комфорт 1015.0 993.7
18 10.08 ЮВ 3 22 км 10/0
[Ac As]
+19.9 +12.4 62 +22 +22 комфорт 1014.0 992.7 +21.6
21 10.08 ЮВ 3 21 км 10/0
[Ac As]
+19.1 +12.8 67 +20 +20 1014.0 992.6
00 11.08 ЮВ 2 21 км 10/0
[Ac As]
+18.2 +12.9 71 +19 +19 1013.0 991.6
03 11.08 Ю 2 20 км 8/0
[Ac As]
+16.6 +13.9 84 +17 +17 1013.0 991.4 +16.5
06 11.08 СЗ 3 18 км 3/0
[Ci fib]
+20.7 +15.9 74 +24 +27 комфорт 1014.0 992.7 +16.2
09 11.08 СЗ 3 20 км 6/3 600 м
[Cu hum Ac trans Ci fib]
+25.6 +14.7 51 +28 +32 жарко 1015.0 994.1
12 11.08 СЗ 5 20 км 9/4 600 м
[Cu med, cong Ac trans Ci sp]
+26.9 +12.9 42 +29 +29 жарко 1014.0 993.2
15 11.08 С 2 21 км 9/4 600 м
[Cu med, cong Ac trans Ci sp]
+27.2 +12.4 40 +29 +29 жарко 1015.0 994.1
18 11.08 СВ 2 21 км 4/4 600 м
[Sc diur, vesp]
+22.7 +13.5 56 +26 +26 жарко 1016.0 994.8 +27.8
21 11.08 ЮВ 2 20 км ясно +17.8 +13.7 77 +18 +18 1017.0 995.4
00 12.08 В 2 21 км ясно +16.8 +12.9 78 +17 +17 1017.0 995.4
03 12.08 ЮВ 2 21 км 6/0
[Ac As]
+17.7 +12.8 73 +18 +18 1017.0 995.4 +15.8
06 12.08 ЮВ 2 19 км 8/0
[Ac As Ci fib]
+21.9 +14.8 64 +25 +25 комфорт 1016.0 994.8 +15.8
09 12.08 ЮВ 4 18 км 9/4 600 м
[Sc Ac As Ci fib]
+27.4 +12.6 40 +29 +29 жарко 1015.0 994.2
12 12.08 ЮВ 5 20 км 9/5 600 м
[Cu med, cong Ac As Ci fib]
+28.8 +12.2 36 +30 +30 жарко 1014.0 993.3
15 12.08 Ю 4 22 км 8/3 600 м
[Cu med, cong Ac As]
+28.9 +11.4 34 +30 +30 жарко 1012.0 991.3
18 12.08 ЮВ 2 21 км 9/3 600 м
[Cb calv Ac As]
+25.8 +15.2 52 +29 +29 душно 1012.0 991.1 +30.3
21 12.08 СВ 1 20 км зарница 9/4 600 м
[Cb calv Ac As]
+22.6 +16.2 67 +27 +27 душно 1011.0 989.9
00 13.08 ЮВ 1 18 км 9/0
[Ac As]
+21.7 +17.9 79 +26 +26 душно 1010.0 988.9
03 13.08 штиль 0 17 км {гроза, ливн. осадки} 10/10 240 м
[St]
+20.2 +19.0 93 +24 +24 комфорт 1009.0 987.8 +20.1
06 13.08 СЗ 3 6000 м слаб. ливневой дождь {гроза} 10/10 150 м
[Cb calv]
+19.2 +18.2 94 +21 +21 комфорт 1010.0 988.7 +19.0 7
09 13.08 СЗ 4 8000 м слаб. ливневой дождь 10/10 180 м
[Cb calv]
+19.4 +18.1 92 +22 +22 комфорт 1011.0 989.7
12 13.08 СЗ 3 19 км {ливн. осадки} 10/5 600 м
[Cb calv Ac und]
+20.9 +16.5 76 +25 +25 комфорт 1013.0 991.8
15 13.08 З 4 21 км 8/3 600 м
[Cu hum Cs]
+23.7 +13.3 52 +26 +26 жарко 1013.0 992.0
18 13.08 ЮЗ 2 20 км 9/0
[Ac As Cs]
+21.5 +13.9 62 +24 +24 комфорт 1014.0 992.8 +24.1 1
21 13.08 В 1 16 км ясно +16.4 +14.6 89 +17 +17 1014.0 992.4
00 14.08 В 1 17 км 4/0
[Ac trans]
+14.2 +13.1 93 +14 +14 1014.0 992.2
03 14.08 ЮВ 1 13 км 8/0
[Ac As Ci fib]
+13.7 +12.9 95 +14 +14 1014.0 992.2 +13.5
06 14.08 штиль 0 12 км 10/0
[Ac As]
+15.2 +14.2 94 +15 +15 1015.0 993.3 +13.4
09 14.08 В 1 9000 м слаб. ливневой дождь 10/4 600 м
[Cb calv As op]
+16.7 +14.7 88 +18 +18 1013.0 991.5
12 14.08 СЗ 3 4800 м слаб. ливневой дождь 10/8 240 м
[Cb calv As op]
+16.2 +14.6 90 +16 +16 1013.0 991.4
15 14.08 С 4 8000 м слаб. ливневой дождь 10/8 270 м
[Cb calv As op]
+14.3 +13.2 93 +13 +13 1014.0 992.2
18 14.08 штиль 0 12 км {ливн. осадки} 10/4 300 м
[St Ac As]
+13.7 +12.8 94 +13 +13 1014.0 992.2 +17.3 12
21 14.08 штиль 0 8000 м дымка 8/3 300 м
[St Ac trans Ci fib]
+13.2 +12.3 94 +13 +13 1015.0 993.1
00 15.08 СЗ 1 8000 м дымка 10/10 210 м
[St]
+12.9 +12.1 95 +13 +13 1016.0 994.1
03 15.08 штиль 0 200 м туман ?/? +11.0 +11.0 100 +10 +10 1017.0 994.9 +10.8
06 15.08 штиль 0 2700 м в посл. час туман 8/8 90 м
[St]
+12.2 +11.6 96 +12 +12 1017.0 995.0 +10.7
09 15.08 штиль 0 21 км 8/5 600 м
[Cu med, cong Ci fib]
+17.1 +9.0 59 +17 +17 1017.0 995.4
12 15.08 СЗ 1 21 км 5/5 600 м
[Cu med, cong]
+20.4 +6.3 40 +22 +28 комфорт 1016.0 994.6
15 15.08 СЗ 1 22 км 5/5 600 м
[Cu med, cong]
+19.6 +7.3 45 +21 +23 комфорт 1016.0 994.6
18 15.08 СВ 1 20 км 4/0
[Ci fib]
+15.1 +8.8 66 +16 +16 1016.0 994.2 +21.6
21 15.08 В 2 20 км 3/0
[Ci fib]
+11.3 +9.0 86 +10 +10 1017.0 994.9
00 16.08 ЮВ 1 20 км ясно +9.1 +7.5 90 +8 +8 1017.0 994.7
03 16.08 ЮВ 2 19 км 3/0
[Ci fib]
+8.2 +6.8 91 +6 +6 1017.0 994.7 +8.1
06 16.08 ЮВ 1 19 км 3/0
[Ci sp]
+15.9 +9.1 64 +17 +20 1017.0 995.3 +7.9
09 16.08 ЮЗ 2 21 км 5/3 600 м
[Cu med, cong Ci sp]
+21.5 +5.8 36 +22 +27 комфорт 1016.0 994.7
12 16.08 ЮВ 2 10 км 6 баллов +22.8 +4.8 31 +23 +27 комфорт 1015.0 993.8
15 16.08 В 1 10 км 6 баллов +22.9 +4.9 31 +23 +25 комфорт 1015.0 993.8
18 16.08 В 2 10 км 3 балла +18.5 +7.3 48 +19 +19 1016.0 994.5 +23.9
21 16.08 ЮВ 1 10 км ясно +13.6 +9.1 74 +14 +14 1017.0 995.1
00 17.08 В 1 10 км 3 балла +11.3 +8.9 85 +11 +11 1017.0 994.9
03 17.08 ЮВ 1 10 км ясно +9.5 +8.1 91 +9 +9 1017.0 994.8 +9.4
06 17.08 ЮВ 1 10 км ясно +17.0 +10.1 64 +18 +22 1017.0 995.4 +9.2
09 17.08 ЮЗ 2 10 км 3 балла +22.9 +5.8 33 +23 +31 комфорт 1016.0 994.8

 

Местоположение метеостанции Волковыск (Гродненская область, Беларусь): широта 53.17 долгота 24.45 высота над уровнем моря 183 м.

В архиве по умолчанию представлена погода в Волковыске за последнюю неделю. Архивные данные за месяц целиком и за предыдущие месяцы, начиная с января 2011 года, Вы можете получить, выбрав интересующий диапазон дат из раскрывающегося списка и нажав кнопку "Ввод!".


*Определитесь, кто Вы:
робот инопланетянин человек

Внимание! Время в таблицах - всемирное. Для получения местного времени необходимо прибавить поправку, которая равна 3 ч.

Смотрите также архив погоды в соседних городах и на ближайших метеорологических станциях:

Погода в Гродно (Гродненская область, Беларусь) (55 км)
Погода в Пружанах (Брестская область, Беларусь) (69 км)
Погода в Ивацевичах (Брестская область, Беларусь) (80 км)
Погода в Белостоке (Польша) (86 км)
Погода в Лиде (Гродненская область, Беларусь) (99 км)
Погода в Барановичах (Брестская область, Беларусь) (101 км)
Погода в Новогрудке (Гродненская область, Беларусь) (104 км)
Погода в Высоком (Брестская область, Беларусь) (115 км)
Погода в Дрогичине (Брестская область, Беларусь) (116 км)
Погода в Варена (Литва) (120 км)

Пояснения к столбцам:

Ветер - указаны скорость ветра в м/с - средняя за 10 мин, порывы в срок и между сроками (в фигурных скобках) и направление, откуда дует ветер: С - северный, СВ - северо-восточный, В - восточный, ЮВ - юго-восточный, Ю - южный, ЮЗ - юго-западный, З - западный, СЗ - северо-западный.
Видимость - горизонтальная дальность видимости в метрах или километрах. При видимости от 1 до 10 км при отсутствии осадков обычно наблюдается дымка, при ухудшении видимости до 1 км и менее - туман. В сухую погоду видимость может ухудшаться дымом, пылью или мглою.
Явления - указаны атмосферные явления, наблюдавшиеся в срок или в последний час перед сроком; фигурными скобками обозначены явления, наблюдавшиеся между сроками (за 1-3 часа до срока); квадратными скобками обозначены град или гололедные отложения с указанием их диаметра в мм.
Облачность - указаны через наклонную черту общая и нижняя облачность в баллах и высота нижней границы облаков в метрах; квадратными скобками обозначены формы облаков: Ci - перистые, Cs - перисто-слоистые, Cc - перисто-кучевые, Ac - высококучевые, As - высокослоистые, Sc - слоисто-кучевые, Ns - слоисто-дождевые, Cu - кучевые, Cb - кучево-дождевые. Подробнее классификацию облаков см. в Атласе облаков (PDF).
T - Температура воздуха - температура, измеренная на высоте 2 м над землей.
Td - Температура точки росы - температура, при понижении до которой содержащийся в воздухе водяной пар достигнет насыщения.
f - Относительная влажность воздуха - влажноcть воздуха, измеренная на высоте 2 м над землей.
Te - Эффективная температура - температура, которую ощущает одетый по сезону человек в тени. Характеристика душности погоды. При расчете учитывается влияние влажности воздуха и скорости ветра на теплоощущения человека.
Tes - Эффективная температура на солнце - температура, которую ощущает человек, с поправкой на солнечный нагрев. Характеристика знойности погоды. Зависит от высоты солнца над горизонтом, облачности и скорости ветра. Ночью, в пасмурную погоду, а также при ветре 12 м/с и более поправка равна нулю.
P - Атмосферное давление - приведенное к уровню моря атмосферное давление.
Po - Атмосферное давление - измеренное на уровне метеостанции атмосферное давление.
Tmin - Минимальная температура - минимум температуры воздуха на высоте 2 м над землей.
Tmax - Максимальная температура - максимум температуры воздуха на высоте 2 м над землей.
R - Количество осадков - Количество выпавших осадков за период времени, мм. При наведении курсора мыши на число - период времени, за который выпало указанное количество осадков.
R24 - Количество осадков - Количество выпавших осадков за 24 часа, мм.
S - Снежный покров - Высота снежного покрова, см. При наведении курсора мыши на число - состояние снежного покрова и степень покрытия местности в баллах.